カタログに戻る

STARLINK-3209

運用中通信VLEO
NORAD 49752·PAYLOAD·🇺🇸 United States

打ち上げ Dec 2, 2021 から Cape Canaveral Space Force Station

Loading…

次のパス (今後24時間)

TLE

最新Source: CelesTrak SupGP

元期: Sep 14, 2026, 20:28 UTC

1 49752C 21115AE  26257.85326389 -.00038971  00000+0 -11516-2 0  2575
2 49752  53.1582 355.7821 0001223  81.7074 357.0161 15.34404705    16

AllMySatでSTARLINK-3209をリアルタイム追跡

Download on the App Store